Le nostre stazioni meteo in Italia

Pubblicità
Il mio iltempo24.it
Olbia/Costa Smeralda, Italia (16531): Temperatura & dewpoint: 30.06.2020 01:00:00 - 06.07.2020 01:00:00 (CEST)Olbia/Costa Smeralda, Italia (16531): velocità del vento: 30.06.2020 01:00:00 - 06.07.2020 01:00:00 (CEST)Olbia/Costa Smeralda, Italia (16531): direzione del vento: 30.06.2020 01:00:00 - 06.07.2020 01:00:00 (CEST)Olbia/Costa Smeralda, Italia (16531): reduced air pressure: 30.06.2020 01:00:00 - 06.07.2020 01:00:00 (CEST)Olbia/Costa Smeralda, Italia (16531): visibility: 30.06.2020 01:00:00 - 06.07.2020 01:00:00 (CEST)Olbia/Costa Smeralda, Italia (16531): precipitazioni: 30.06.2020 01:00:00 - 06.07.2020 01:00:00 (CEST)
Data & Tempo tt [°C] td [°C] ff [km/h] ff [kn] dd ppp [hPa] vv [km] rr [mm]
06.07.2020 01:00:00 24,0 16,0 18 10 SO - 10 -
06.07.2020 00:00:00 25,0 15,0 11 6 OSO - 10 -
05.07.2020 23:00:00 25,5 14,9 5 3 O 1014,3 10 0,0
05.07.2020 22:00:00 27,0 14,0 9 5 NO - 10 -
05.07.2020 21:00:00 29,0 13,0 11 6 N - 10 -
05.07.2020 20:00:00 30,2 12,1 16 9 N 1013,4 10 -
05.07.2020 19:00:00 30,0 17,0 16 9 ENE - 10 -
05.07.2020 18:00:00 31,0 12,0 22 12 NE - 10 -
05.07.2020 17:00:00 31,1 12,3 24 13 ENE 1014,6 10 0,0
05.07.2020 16:00:00 32,0 11,0 22 12 NE - 10 -
05.07.2020 15:00:00 32,0 11,0 24 13 ENE - 10 -
05.07.2020 14:00:00 32,7 11,0 24 13 ENE 1015,7 10 -
05.07.2020 13:00:00 31,0 11,0 16 9 E - 10 -
05.07.2020 12:00:00 31,0 12,0 13 7 ENE - 10 -
05.07.2020 11:00:00 30,1 10,7 9 5 NO 1017,0 10 0,0
05.07.2020 10:00:00 28,0 12,0 5 3 - - 10 -
05.07.2020 09:00:00 26,0 12,0 11 6 SO - 10 -
05.07.2020 08:00:00 23,9 13,2 16 9 OSO 1017,3 10 -
05.07.2020 07:00:00 21,0 15,0 22 12 SO - 10 -
05.07.2020 06:00:00 20,0 15,0 21 11 SSO - 10 -
05.07.2020 05:00:00 21,2 14,5 24 13 SO 1016,8 10 0,0
05.07.2020 04:00:00 21,0 14,0 16 9 SO - 10 -
05.07.2020 03:00:00 22,0 15,0 24 13 OSO - 10 -
05.07.2020 02:00:00 21,8 14,6 18 10 SO 1017,8 10 -
05.07.2020 01:00:00 22,0 15,0 21 11 SO - 10 -
05.07.2020 00:00:00 23,0 15,0 22 12 OSO - 10 -
04.07.2020 23:00:00 23,6 15,0 18 10 OSO 1017,5 10 0,0
04.07.2020 22:00:00 24,0 16,0 16 9 O - 10 -
04.07.2020 21:00:00 25,0 16,0 26 14 NO - 10 -
04.07.2020 20:00:00 26,6 14,6 24 13 ONO 1016,3 10 -
04.07.2020 19:00:00 29,0 15,0 24 13 ONO - 10 -
04.07.2020 18:00:00 29,0 15,0 24 13 NO - 10 -
04.07.2020 17:00:00 30,0 12,9 29 16 O 1015,2 10 0,0
04.07.2020 16:00:00 31,0 13,0 18 10 NO - 10 -
04.07.2020 15:00:00 31,0 13,0 15 8 NNO - 10 -
04.07.2020 14:00:00 30,1 11,3 15 8 NNO 1015,3 10 -
04.07.2020 13:00:00 30,0 12,0 15 8 NNO - 10 -
04.07.2020 12:00:00 28,0 12,0 13 7 OSO - 10 -
04.07.2020 11:00:00 27,5 12,2 16 9 SO 1015,3 10 0,0
04.07.2020 10:00:00 26,0 13,0 31 17 OSO - 10 -
04.07.2020 09:00:00 25,0 14,0 35 19 OSO - 10 -
04.07.2020 08:00:00 22,8 13,5 22 12 OSO 1014,8 10 -
04.07.2020 07:00:00 21,0 13,0 22 12 OSO - 10 -
04.07.2020 06:00:00 22,0 13,0 29 16 OSO - 10 -
04.07.2020 05:00:00 20,2 13,2 26 14 SO 1014,1 10 0,0
04.07.2020 04:00:00 20,0 13,0 26 14 OSO - 10 -
04.07.2020 03:00:00 21,0 12,0 34 18 OSO - 10 -
04.07.2020 02:00:00 21,0 12,3 34 18 OSO 1015,0 10 -
04.07.2020 01:00:00 22,0 12,0 26 14 OSO - 10 -
04.07.2020 00:00:00 22,0 13,0 29 16 SO - 10 -
03.07.2020 23:00:00 22,6 12,9 15 8 OSO 1015,7 10 0,0
03.07.2020 22:00:00 24,0 13,0 13 7 O - 10 -
03.07.2020 21:00:00 25,0 13,0 22 12 SO - 10 -
03.07.2020 20:00:00 27,4 10,5 24 13 SO 1013,4 10 -
03.07.2020 19:00:00 30,0 9,0 26 14 O - 10 -
03.07.2020 18:00:00 30,0 8,0 39 21 ONO - 10 -
03.07.2020 17:00:00 31,4 8,2 37 20 ONO 1012,1 10 0,0
03.07.2020 16:00:00 33,0 7,0 34 18 O - 10 -
03.07.2020 15:00:00 32,0 8,0 34 18 O - 10 -
03.07.2020 14:00:00 33,2 11,8 28 15 ONO 1012,6 10 -
03.07.2020 13:00:00 34,0 12,0 28 15 ONO - 10 -
03.07.2020 12:00:00 33,0 13,0 26 14 ONO - 10 -
03.07.2020 11:00:00 32,6 13,6 24 13 O 1012,0 10 0,0
03.07.2020 10:00:00 30,0 15,0 31 17 OSO - 10 -
03.07.2020 09:00:00 27,0 16,0 34 18 SO - 10 -
03.07.2020 08:00:00 25,2 16,5 29 16 SO 1011,9 10 -
03.07.2020 07:00:00 23,0 17,0 22 12 OSO - 10 -
03.07.2020 06:00:00 23,0 17,0 22 12 SO - 10 -
03.07.2020 05:00:00 23,7 15,8 31 17 OSO 1011,4 10 0,0
03.07.2020 04:00:00 25,0 15,0 31 17 OSO - 10 -
03.07.2020 03:00:00 - - - - - - - -
03.07.2020 02:00:00 25,2 16,4 22 12 OSO 1011,4 10 -
03.07.2020 01:00:00 25,0 18,0 18 10 SO - 10 -
03.07.2020 00:00:00 26,0 15,0 8 4 O - 10 -
02.07.2020 23:00:00 26,7 13,5 16 9 SO 1011,6 10 0,0
02.07.2020 22:00:00 28,0 15,0 8 4 O - 10 -
02.07.2020 21:00:00 28,0 18,0 5 3 E - 10 -
02.07.2020 20:00:00 29,1 18,0 11 6 E 1011,1 10 -
02.07.2020 19:00:00 30,0 17,0 15 8 E - 10 -
02.07.2020 18:00:00 31,0 17,0 15 8 ENE - 10 -
02.07.2020 17:00:00 30,6 16,7 16 9 E 1010,9 10 0,0
02.07.2020 16:00:00 31,0 17,0 18 10 E - 10 -
02.07.2020 15:00:00 30,0 19,0 22 12 E - 10 -
02.07.2020 14:00:00 30,1 20,2 22 12 ENE 1011,7 10 -
02.07.2020 13:00:00 30,0 20,0 22 12 ENE - 10 -
02.07.2020 12:00:00 29,0 21,0 16 9 E - 10 -
02.07.2020 11:00:00 29,6 19,4 16 9 N 1011,9 10 0,0
02.07.2020 10:00:00 27,0 20,0 11 6 ONO - 10 -
02.07.2020 09:00:00 26,0 20,0 15 8 O - 10 -
02.07.2020 08:00:00 23,6 18,2 11 6 SO 1011,3 10 -
02.07.2020 07:00:00 22,0 20,0 11 6 SO - 10 -
02.07.2020 06:00:00 22,0 21,0 11 6 OSO - 10 -
02.07.2020 05:00:00 22,1 20,5 5 3 O 1010,5 10 0,0
02.07.2020 04:00:00 23,0 21,0 8 4 ONO - 10 -
02.07.2020 03:00:00 24,0 22,0 5 3 NO - 10 -
02.07.2020 02:00:00 24,3 22,1 4 2 - 1011,3 10 -
02.07.2020 01:00:00 24,0 22,0 4 2 NE - 10 -
02.07.2020 00:00:00 24,0 22,0 4 2 - - 10 -
01.07.2020 23:00:00 24,5 22,3 4 2 - 1011,1 10 0,0
01.07.2020 22:00:00 25,0 23,0 8 4 NNE - 10 -
01.07.2020 21:00:00 27,0 22,0 8 4 NE - 10 -
01.07.2020 20:00:00 28,1 22,1 11 6 ENE 1010,7 10 -
01.07.2020 19:00:00 30,0 22,0 11 6 E - 10 -
01.07.2020 18:00:00 30,0 21,0 16 9 E - 10 -
01.07.2020 17:00:00 31,0 21,0 18 10 ENE 1011,4 10 0,0
01.07.2020 16:00:00 31,0 20,0 22 12 E - 10 -
01.07.2020 15:00:00 31,0 20,0 22 12 ENE - 10 -
01.07.2020 14:00:00 31,2 19,2 21 11 ENE 1012,2 10 -
01.07.2020 13:00:00 30,0 19,0 24 13 NE - 10 -
01.07.2020 12:00:00 30,0 18,0 16 9 ENE - 10 -
01.07.2020 11:00:00 28,8 18,4 13 7 NE 1013,3 10 0,0
01.07.2020 10:00:00 28,0 17,0 8 4 N - 10 -
01.07.2020 09:00:00 26,0 17,0 2 1 - - 10 -
01.07.2020 08:00:00 24,7 17,2 2 1 - 1013,9 10 -
01.07.2020 07:00:00 19,0 16,0 4 2 SSE - 10 -
01.07.2020 06:00:00 20,0 16,0 5 3 S - 10 -
01.07.2020 05:00:00 21,1 16,6 2 1 - 1013,3 10 0,0
01.07.2020 04:00:00 22,0 17,0 2 1 - - 10 -
01.07.2020 03:00:00 22,0 17,0 5 3 SSO - 10 -
01.07.2020 02:00:00 22,7 16,6 2 1 N 1013,8 18 -
01.07.2020 01:00:00 23,0 17,0 4 2 - - 10 -
01.07.2020 00:00:00 - - - - - - - -
30.06.2020 23:00:00 24,9 19,7 4 2 - 1014,0 10 0,0
30.06.2020 22:00:00 26,0 19,0 5 3 ENE - 10 -
30.06.2020 21:00:00 27,0 17,0 11 6 E - 10 -
30.06.2020 20:00:00 29,0 14,9 15 8 E 1012,9 10 -
30.06.2020 19:00:00 31,0 14,0 16 9 E - 10 -
30.06.2020 18:00:00 32,0 15,0 16 9 ENE - 10 -
30.06.2020 17:00:00 32,6 14,6 18 10 E 1013,0 30 0,0
30.06.2020 16:00:00 34,0 15,0 18 10 ENE - 10 -
30.06.2020 15:00:00 34,0 15,0 9 5 - - 10 -
30.06.2020 14:00:00 33,2 15,3 16 9 NE 1013,2 10 -
30.06.2020 13:00:00 34,0 13,0 9 5 - - 10 -
30.06.2020 12:00:00 32,0 13,0 16 9 SO - 10 -
30.06.2020 11:00:00 30,7 14,3 16 9 SSO 1014,0 10 0,0
30.06.2020 10:00:00 30,0 15,0 18 10 SO - 10 -
30.06.2020 09:00:00 28,0 15,0 21 11 SO - 10 -
30.06.2020 08:00:00 25,9 15,6 21 11 SO 1013,9 10 -
30.06.2020 07:00:00 24,0 16,0 22 12 OSO - 10 -
30.06.2020 06:00:00 23,0 16,0 15 8 SO - 10 -
30.06.2020 05:00:00 23,8 16,9 18 10 SO 1013,6 10 0,0
30.06.2020 04:00:00 25,0 17,0 22 12 OSO - 10 -
30.06.2020 03:00:00 25,0 17,0 16 9 SO - 10 -
30.06.2020 02:00:00 25,1 17,0 8 4 SO 1013,8 10 -
30.06.2020 01:00:00 26,0 18,0 21 11 OSO - 10 -

tt = Temperatura
td = dewpoint
ff = velocità del vento
dd = direzione del vento
ppp = reduced air pressure
vv = visibility
rr = precipitazioni

Stazioni seguenti

WeatherPro
AMSI
MeteoEarth